User: anonymous
Location: Mentone
(34.5413°N, 85.5351°W)
Time: 03:06:10
(UTC-05:00)
Language:

Transit 2A Rocket - Orbit

View from above orbital plane
View from above orbital plane
View from above satellite
View from above satellite

Ground track
Ground track

The orbit data is extracted from the following two-line orbital elements,

1 00047U 60007C   14263.75358436  .00000168  00000-0  63540-4 0  3149
2 00047 066.6687 359.3631 0225974 035.1235 326.4529 14.41214967832856
Epoch (UTC): 20 September 2014 18:05:09
Eccentricity: 0.0225974
inclination: 66.6687°
perigee height: 593 km
apogee height: 915 km
right ascension of ascending node: 359.3631°
argument of perigee: 35.1235°
revolutions per day: 14.41214967
mean anomaly at epoch: 326.4529°
orbit number at epoch: 83285

The dashed part of the orbit path shows where the satellite is in the earth's shadow,  

DLR